Flag for U.S.A. Weather past 2 weeks in Sitka, Alaska, U.S.A.

Now
61 °F

Partly sunny.


Feels Like: 61 °F
Forecast: 51 / 56 °F
Wind: 10 mph from West

Location: Sitka Airport

Current Time: Sep 16, 2014 at 4:41:14 PM

Latest Report: Sep 16, 2014 at 3:53 PM


Visibility: 10 mi

Pressure: 29.86 "Hg

Humidity: 75%

Dew point: 53 °F

Location of SitkaLocation

Historic Weather in Sitka — Graph

°F

Sitka temperature yesterday

Maximum temperature yesterday: 60 °F (at 2:53 PM)
Minimum temperature yesterday: 53 °F (at 3:02 AM)
Average temperature yesterday: 56 °F

Past Weeks' High & Low Weather Summary

 TemperatureHumidityPressure
High63 °F (Sep 10, 12:53 PM)100% (Sep 1, 9:53 PM)30.34 "Hg (Sep 1, 9:53 PM)
Low46 °F (Sep 8, 5:53 AM)48% (Sep 10, 12:53 PM)29.85 "Hg (Sep 1, 2:53 PM)
Average55 °F93%30.09 "Hg
* Reported Sep 1 2:53 PM — Sep 16 2:53 PM, Sitka, Weather by CustomWeather, © 2014

Note: Actual official high and low records may vary slightly from our data, if they occured in-between our weather recording intervals... More about our weather records

Advertising

Sitka weather history for previous 24 hours

 ConditionsComfort  
Time TempWeatherWind HumidityBarometerVisibility
2:53 PM
Sep 16
61 °FPartly sunny.9 mph75%29.87 "Hg10 mi
1:53 PM61 °FPartly sunny.9 mph75%29.87 "Hg10 mi
12:53 PM60 °FScattered clouds.8 mph75%29.87 "Hg10 mi
11:53 AM57 °FPartly sunny.10 mph87%29.87 "Hg10 mi
10:53 AM56 °FMostly cloudy.14 mph90%29.87 "Hg10 mi
9:53 AM55 °FOvercast.13 mph100%29.86 "Hg10 mi
8:57 AM55 °FMore clouds than sun.13 mph100%29.86 "Hg10 mi
8:01 AM55 °FFog.12 mph100%29.86 "Hg1 mi
6:55 AM55 °FLight rain. Fog.7 mph100%29.86 "Hg1 mi
6:00 AM56 °FLight rain. Fog.9 mph100%29.85 "Hg3 mi
4:53 AM56 °FLight rain. Fog.7 mph100%29.85 "Hg3 mi
4:01 AM56 °FLight rain. Fog.6 mph100%29.86 "Hg2 mi
3:00 AM57 °FLight rain. Fog.3 mph100%29.87 "Hg6 mi
1:53 AM57 °FOvercast.No wind100%29.87 "Hg10 mi
12:53 AM57 °FOvercast.No wind100%29.87 "Hg10 mi
11:53 PM
Sep 15
57 °FLow clouds.3 mph100%29.87 "Hg10 mi
11:03 PM57 °FOvercast.3 mph100%29.88 "Hg10 mi
10:53 PM57 °FLight rain. Mostly cloudy.5 mph100%29.88 "Hg10 mi
9:53 PM57 °FLight rain. Overcast.No wind100%29.88 "Hg7 mi
8:53 PM57 °FMostly cloudy.No wind96%29.88 "Hg10 mi
7:53 PM57 °FFog.8 mph96%29.89 "Hg6 mi
6:53 PM58 °FMore clouds than sun.6 mph93%29.88 "Hg10 mi
6:00 PM58 °FMore clouds than sun.6 mph97%29.88 "Hg9 mi
5:00 PM60 °FOvercast.7 mph86%29.89 "Hg10 mi
Weather by CustomWeather, © 2014

See weather overviewHow to use our weather pages